Regional Weather Roundup
Issued by NWS

Home | Current Version | Previous Version | Text Only | Print | Product List | Glossary On
Versions: 1 2 3 4 5 6 7 8 9 10 11 12 13 14 15 16 17 18 19 20 21 22 23 24 25 26 27 28 29 30 31 32 33 34 35 36 37 38 39 40 41 42 43 44 45 46 47 48 49 50
000
ASUS43 KIND 240309
RWRIN

WEATHER ROUNDUP FOR INDIANA
NATIONAL WEATHER SERVICE INDIANAPOLIS IN
1000 PM EST MON JAN 23 2017

NOTE: "FAIR" INDICATES FEW OR NO CLOUDS BELOW 12,000 FEET WITH NO
SIGNIFICANT WEATHER AND/OR OBSTRUCTIONS TO VISIBILITY.

* - STATION DOES NOT REPORT WEATHER SUCH AS PRECIPITATION OR FOG.

+ - STATION NOT QUALITY CONTROLLED BY THE NATIONAL WEATHER SERVICE.
    USE DATA WITH CAUTION...ESPECIALLY DEWPOINT AND RELATIVE
    HUMIDITY OBSERVATIONS.

INZ001>003-010>013-019-020-240400-
NORTHWEST INDIANA

CITY           SKY/WX    TMP DP  RH WIND       PRES   REMARKS
KNOX *+        CLOUDY    37  27  65 NW6       29.79R
LA PORTE +     CLOUDY    38  37  96 N9        29.79R
MICHIGAN CITY+ CLOUDY    37  37 100 NW9       29.80R FOG
MONTICELLO +   CLOUDY    38  36  92 NW9       29.79R
RENSSELAER +     N/A     39  37  93 NW6       29.80S
VALPARAISO     CLOUDY    40  38  93 N7        29.80R

$$

LMZ046-743>745-240400-
SOUTHERN LAKE MICHIGAN

STATION/POSITION TIME  TEMP    WIND        PRES    WAVE
                       AIR SEA DIR/SP/G            HT
                 (UTC) (F)     (DEG/KT/KT) (MB)    (FT)
BURNS HARBOR     0240   37     360/  7/  8 1010.2R
MICHIGAN CITY    0240   37     320/ 14/ 15   N/A

$$

INZ004-005-014>016-021>024-240400-
NORTH CENTRAL INDIANA

CITY           SKY/WX    TMP DP  RH WIND       PRES   REMARKS
GOSHEN         LGT RAIN  40  37  89 NW12      29.74R FOG
LOGANSPORT +   CLOUDY    37  36  93 NW6       29.79R FOG
PERU/GRISSOM   DRIZZLE   39  39 100 NW12      29.75R
ROCHESTER +    CLOUDY    41  41 100 NW9       29.77R FOG
SOUTH BEND     CLOUDY    37  37 100 NW10      29.77R
WARSAW +       DRIZZLE   37  37 100 N5        29.74S

$$

INZ006>009-017-018-025>027-240400-
NORTHEAST INDIANA

CITY           SKY/WX    TMP DP  RH WIND       PRES   REMARKS
ANGOLA *+      CLOUDY    39  28  65 N3        29.71S
AUBURN +       LGT RAIN  41  39  93 NW5       29.72S
FORT WAYNE     LGT RAIN  42  39  89 NW8       29.72S
HUNTINGTON +   DRIZZLE   39  38  96 NW5       29.73R
KENDALLVILLE + DRIZZLE   40  40 100 NW6       29.73R

$$

INZ028-029-035-036-043>045-051>053-240400-
WEST CENTRAL INDIANA

CITY           SKY/WX    TMP DP  RH WIND       PRES   REMARKS
CRAWFORDSVL +  CLOUDY    36  36 100 NW3       29.79S
GREENCASTLE +  CLOUDY    37  36  93 NW5       29.79S FOG
LAFAYETTE      CLOUDY    39  37  92 NW8       29.79S
TERRE HAUTE    CLOUDY    40  34  79 NW9       29.81S

$$

INZ030>032-037>040-046>048-054>057-064-065-240400-
CENTRAL INDIANA

CITY           SKY/WX    TMP DP  RH WIND       PRES   REMARKS
CP ATTERBURY + CLOUDY    39  37  93 NW10      29.76S FOG
COLUMBUS       LGT RAIN  39  39 100 NW13      29.77R FOG
FISHERS *+     CLOUDY    37  37 100 NW8       29.76
FRANKFORT +    CLOUDY    40  39  95 NW10      29.80R FOG
GREENWOOD *+   CLOUDY    40  40  97 NW9       29.76S
INDIANAPOLIS   DRIZZLE   39  38  96 NW13      29.77R FOG
-EAGLE CREEK   CLOUDY    40  37  89 NW12      29.76R FOG
KOKOMO +       LGT RAIN  39  38  96 NW13      29.76R FOG
MARION +       CLOUDY    39  39 100 NW7       29.75R FOG
MT COMFORT *+  CLOUDY    39  37  93 NW12G21   29.76R
SHELBYVILLE    CLOUDY    41  38  89 NW17      29.74R
ZIONSVILLE +   CLOUDY    37  37  98 NW13      29.77R FOG

$$

INZ033-034-041-042-049-050-058-059-240400-
EAST CENTRAL INDIANA

CITY           SKY/WX    TMP DP  RH WIND       PRES   REMARKS
MUNCIE         CLOUDY    42  40  92 NW12      29.72R

$$

INZ060-061-067>069-081>083-085>088-240400-
SOUTHWEST INDIANA

CITY           SKY/WX    TMP DP  RH WIND       PRES   REMARKS
EVANSVILLE     CLOUDY    43  36  76 N3        29.83S
WASHINGTON +   CLOUDY    40  35  83 NW9G17    29.82R

$$

INZ062-063-066-070>080-084-089>092-240400-
SOUTH CENTRAL AND SOUTHEAST INDIANA

CITY           SKY/WX    TMP DP  RH WIND       PRES   REMARKS
BEDFORD +      CLOUDY    39  37  93 NW5       29.77S FOG
BLOOMINGTON    CLOUDY    39  36  89 CALM      29.77S FOG
MADISON *+     CLOUDY    41  37  87 NW12G17   29.75S
NORTH VERNON + CLOUDY   N/A N/A N/A NW13G22   29.75R HAZE
SEYMOUR +      CLOUDY    43  41  93 NW10      29.76S

$$




USA.gov is the U.S. government's official web portal to all federal, state and local government web resources and services.